Regional Weather Roundup
Issued by NWS

Home | Current Version | Previous Version | Text Only | Print | Product List | Glossary On
Versions: 1 2 3 4 5 6 7 8 9 10 11 12 13 14 15 16 17 18 19 20 21 22 23 24 25 26 27 28 29 30 31 32 33 34 35 36 37 38 39 40 41 42 43 44 45 46 47 48 49 50
000
ASUS43 KMKX 100921
RWRWI

WISCONSIN REGIONAL WEATHER ROUNDUP
NATIONAL WEATHER SERVICE MILWAUKEE/SULLIVAN WI
300 AM CST WED FEB 10 2016

NOTE: "FAIR" INDICATES FEW OR NO CLOUDS BELOW 12,000 FEET WITH NO
SIGNIFICANT WEATHER AND/OR OBSTRUCTIONS TO VISIBILITY.

WIZ001-002-006>008-014>016-023>028-101000-
NORTHWEST WISCONSIN

CITY           SKY/WX    TMP DP  RH WIND       PRES   REMARKS
SUPERIOR ARPT  CLOUDY    -2  -8  74 N8        30.14F WCI -17
ASHLAND        CLOUDY     5  -1  76 N6        30.08R WCI  -6
HAYWARD        CLOUDY     3  -4  72 VRB6      30.04S WCI  -8
SIREN          PTCLDY    -9 -12  83 CALM      30.11R
CUMBERLAND     CLOUDY    -4  -9  77 NW7       30.06S WCI -18
RICE LAKE      CLOUDY     1  -5  74 NW5       30.08F WCI  -9
CHETEK         PTCLDY    -4  -7  84 NW3       30.07F
LADYSMITH      CLOUDY     2  -3  78 NW6       30.04S WCI  -9
EAU CLAIRE     PTCLDY     1  -8  66 NW6       30.07S WCI -10
MENOMONIE      CLOUDY     2  -7  66 NW7       30.09S WCI -11
NEW RICHMOND   PTCLDY    -1  -7  75 NW6       30.10S WCI -12
OSCEOLA        CLOUDY     2  -5  72 CALM      30.15R
$$

WIZ003>005-009-010-017-018-101000-
NORTH CENTRAL WISCONSIN

CITY           SKY/WX    TMP DP  RH WIND       PRES   REMARKS
MANITOWISH WTR CLOUDY     4   0  81 NW3       29.92S
ARBOR VITAE    CLOUDY     5   0  80 N6        29.92S WCI  -6
WOODRUFF       CLOUDY     5   0  80 N6        29.92S WCI  -6
RHINELANDER    CLOUDY     5  -4  66 N8        29.91S WCI  -8
EAGLE RIVER    CLOUDY     4  -3  71 N9        29.90S WCI -10
LAND O LAKES   CLOUDY     4  -1  79 NW9       29.90S WCI -10
PHILLIPS       CLOUDY     2  -3  79 NW7       29.96S WCI -10
TOMAHAWK       CLOUDY     5   0  79 NW6       29.94S WCI  -6
MEDFORD        CLOUDY     5  -2  74 NW9       29.95R WCI  -9
MERRILL        CLOUDY     6   0  74 NW6       29.95F WCI  -4
$$

WIZ029-030-035-036-043>047-101000-
CENTRAL WISCONSIN

CITY           SKY/WX    TMP DP  RH WIND       PRES   REMARKS
WAUSAU         CLOUDY     9  -1  64 NW8       29.94F WCI  -3
MOSINEE        CLOUDY     9   1  72 CALM      29.96S
MARSHFIELD     PTCLDY     4  -5  66 NW12      29.97S WCI -12
STEVENS POINT  CLOUDY     7  -1  69 NW9       29.96F WCI  -7
WAUPACA        CLOUDY    13   3  64 NW8       29.98R WCI   2
WAUTOMA        CLOUDY    11  -1  58 N8        29.99R WCI  -1
WISC RAPIDS    CLOUDY     8  -3  61 NW10      29.99F WCI  -6
CAMP DOUGLAS   PTCLDY     4  -2  76 NW13      30.02F WCI -13
$$

WIZ011>013-019>022-031-037>040-048>050-101000-
NORTHEAST WISCONSIN

CITY           SKY/WX    TMP DP  RH WIND       PRES   REMARKS
ANTIGO         CLOUDY     5  -4  65 N16G23    29.91S WCI -14
SHAWANO        CLOUDY    11  -2  55 NW10      29.96S WCI  -2
OCONTO         CLEAR      8  -4  60 NW6       29.95S WCI  -3
STURGEON BAY   PTCLDY     9  -4  56 NW17      29.92F WCI -10
GREEN BAY      CLEAR      9  -4  55 N16       29.95R WCI  -8
MANITOWOC      CLEAR      9  -2  61 NW14      29.93R WCI  -7
APPLETON       CLEAR     10  -4  52 NW14      29.93R WCI  -5
CLINTONVILLE   CLOUDY    12  -2  52 N12       29.96S WCI  -2
OSHKOSH        MOCLDY    10  -1  61 NW12      29.95R WCI  -5
$$

WIZ032>034-041-042-053>061-101000-
SOUTHWEST WISCONSIN

CITY           SKY/WX    TMP DP  RH WIND       PRES   REMARKS
LA CROSSE      PTCLDY     4  -7  60 NW10      30.09S WCI -11
SPARTA         MOCLDY     3  -5  70 W5        30.07R WCI  -6
VIROQUA        PTCLDY     1  -7  70 NW10      30.01S WCI -15
BOSCOBEL       CLEAR     -2  -6  83 CALM      30.08F
PRAIRIE DU CHI PTCLDY     5  -5  64 W8        30.09S WCI  -9
PLATTEVILLE    CLEAR      4  -3  71 W5        30.03S WCI  -5
$$

WIZ056-057-062-063-064-067-068-101000-
SOUTH CENTRAL WISCONSIN

CITY           SKY/WX    TMP DP  RH WIND       PRES   REMARKS
REEDSBURG      CLOUDY     6  -2  68 NW8       30.01F WCI  -7
BARABOO/DELLS  CLOUDY     8  -1  67 NW5       29.99F WCI  -1
LONE ROCK      PTCLDY     6  -5  60 NW7       30.05F WCI  -6
MINERAL POINT  CLEAR      7  -4  61 NW9       30.00F WCI  -7
MADISON        CLOUDY    10   0  63 NW10      30.00R WCI  -4
MIDDLETON      CLOUDY    10   2  71 NW8       30.00S WCI  -3
WATERTOWN      MOCLDY    10   1  68 NW12      29.96S WCI  -5
MONROE         CLOUDY     9   1  72 NW12      29.99R WCI  -6
JANESVILLE     CLOUDY    14   1  57 NW15      30.00R WCI  -1
$$

WIZ051-052-058>065-066-070>072-101000-
SOUTHEAST WISCONSIN

CITY           SKY/WX    TMP DP  RH WIND       PRES   REMARKS
MILWAUKEE      PTCLDY    11   0  61 NW10      29.94S WCI  -3
WAUKESHA       CLEAR      7   0  72 W12       29.95R WCI  -9
MILWAUKEE/TIMM CLEAR     10   0  61 NW12      29.95R WCI  -4
RACINE         PTCLDY    11   0  61 NW8       29.96S WCI  -1
BURLINGTON     CLEAR      7  -2  68 NW10G16   29.96R WCI  -8
KENOSHA        PTCLDY    11   1  64 NW10      29.95R WCI  -3
FOND DU LAC    MOCLDY    10   0  63 NW10      29.95S WCI  -4
SHEBOYGAN      CLEAR      9  -2  61 NW15      29.93R WCI  -8
WEST BEND      CLEAR      9   0  66 CALM      29.93R
JUNEAU         CLOUDY     8   0  69 NW8       29.97R WCI  -4
$$

LSZ147-162-101000-
LAKE SUPERIOR

STATION/POSITION TIME  TEMP    WIND        PRES    WAVE
                       AIR SEA DIR/SP/G            HT/PER
                 (UTC) (F)     (DEG/KT/KT) (MB)    (FT/S)
DEVILS ISLAND    0900    5     360/ 11/ 18 1020.8R
SAXON HARBOR     0840    9                 1017.3F
$$

LMZ867-665-643>646-101000-
LAKE MICHIGAN

STATION/POSITION TIME  TEMP    WIND        PRES    WAVE
                       AIR SEA DIR/SP/G            HT/PER
                 (UTC) (F)     (DEG/KT/KT) (MB)    (FT/S)
CHAMBERS ISLAND  0800   10     300/ 16/ 22 1012.9R
ALGOMA LAKESHORE 0841          310/ 13/ 19   N/A
KEWAUNEE LAKESHO 0800   10     320/ 11/ 21 1012.3R
SHEBOYGAN LAKESH 0900   11     320/ 15/ 20 1015.0R
PORT WASHINGTON  0800   12     300/  8/ 14 1014.6S
MILWAUKEE LAKESH 0810   13     310/  9/ 11   N/A
KENOSHA   LAKESH 0900   11     310/ 10/ 13 1014.2S
$$

TC  - TEMPERATURE IN CELSIUS
VSB - VISIBILITY IN STATUTE MILES
WCI - WIND CHILL INDEX
HX  - HEAT INDEX




USA.gov is the U.S. government's official web portal to all federal, state and local government web resources and services.